Starlink 31767

operational
NORAD ID: 59605 Int'l Des: 2024-080 Owner: SPXS Country: US Constellation: starlink
LEOCIRCULAR

关于 Starlink 31767

正在加载描述...

实时位置

正在加载3D地球...

即将过境

高度历史

Altitude vs Time

uPlot chart will show altitude changes over time

两行轨道根数

1 59605U 24080E 25258.40895322 .00001615 00000-0 68190-4 0 9995
2 59605 43.0021 307.9847 0001222 258.3350 101.7365 15.27578208 77729
Epoch: Sep 15, 2025 • Age: 13 hours

当前状态

高度 486.4 km
速度 7.63 km/s
星下点 40.07°N, 33.47°E
发射日期 Apr 28, 2024
运行时间 1.3 years
类型 internet

技术详情

分类 Payload
质量 730.00 kg
干质量 700.00 kg
总质量 730.00 kg
长度 0.30 m
直径 4.10 m
跨度 29.00 m
形状 Box + pan
制造商 SPXS
平台类型 Starlink V2M
阶段状态 In Orbit
所有者/国家 SPXS/US

大型星座

Loading constellations...